sat.trackr.live / text

‹ back to catalog

STARLINK-5259

NORAD 54209 · 2022-141BE

PAYLOAD ACTIVE UNKNOWN

§ Identity

Operator
Country
US
Launch date
2022-10-28
Launch site
AFWTR
Launch vehicle
Mass (kg)
RCS (m²)

Purposes: comms

External: N2YO · Heavens-Above · Gunter

§ Orbital elements

Epoch: 2026-09-20T05:54:10.314144Z

Period
93.79 min
Inclination
53.1611°
Eccentricity
0.0001260
Mean motion
15.35395512 rev/d
Perigee alt
458.9 km
Apogee alt
460.6 km
Semi-major
6,837.9 km
B*
5.6221e-5
RAAN
181.3381°
Arg perigee
73.0133°
Mean anomaly
287.1008°
Rev number
21,563

§ Raw data

STARLINK-52591 54209U 22141BE  26263.24595271  .00001581  00000+0  56221-4 0  99982 54209  53.1611 181.3381 0001260  73.0133 287.1008 15.35395512215632

JSON: /api/v1/satellites/54209 · /tle

For live sub-satellite position, see the globe view (requires WebGL).

§ Visibility from observer

Set your observer location to see the next 7 days of passes ≥ 10°. The values pass through the URL so the page stays shareable.

No JS? Fill the form by hand. The geolocation button needs JavaScript.